Home   Weather   Tromsø   Past weeks
Flag for Norway

Past Weather in Tromsø, Norway — Yesterday and Last 2 Weeks

Now
34 °F

Clear.


Feels Like: 34 °F
Forecast: 31 / 26 °F
Wind: 1 mph from Northeast

Location: Tromso / Langnes

Current Time: Oct 16, 2019 at 5:39:38 pm

Latest Report: Oct 16, 2019 at 5:00 pm


Visibility: 31 mi

Pressure: 30.06 "Hg

Humidity: 84%

Dew Point: 29 °F

Location of TromsøLocation

Past Weather in Tromsø — Graph

°F

Tromsø Temperature Yesterday

Maximum temperature yesterday: 35 °F (at 2:00 pm)
Minimum temperature yesterday: 25 °F (at 8:00 am)
Average temperature yesterday: 30 °F

High & Low Weather Summary for the Past Weeks

 TemperatureHumidityPressure
High45 °F (Oct 1, 4:00 pm)99% (Oct 11, 6:00 am)30.29 "Hg (Oct 11, 6:00 am)
Low23 °F (Oct 13, 5:00 am)45% (Oct 2, 1:00 am)29.41 "Hg (Oct 11, 7:00 am)
Average35 °F81%29.88 "Hg
* Reported Oct 1 4:00 pm — Oct 16 4:00 pm, Tromsø. Weather by CustomWeather, © 2019

Note: Actual official high and low records may vary slightly from our data, if they occured in-between our weather recording intervals... More about our weather records

Advertising

Tromsø Weather History for the Previous 24 Hours

Scroll right to see more
 ConditionsComfort  
Time TempWeatherWind HumidityBarometerVisibility
4:00 pm
Wed, Oct 16
37 °FScattered clouds.1 mph80%30.07 "Hg31 mi
3:00 pm36 °FOvercast.2 mph82%30.07 "Hg31 mi
2:00 pm36 °FPassing clouds.1 mph83%30.07 "Hg31 mi
1:00 pm36 °FPassing clouds.1 mph85%30.07 "Hg31 mi
12:00 pm35 °FPassing clouds.2 mph85%30.07 "Hg31 mi
11:00 am34 °FScattered clouds.1 mph91%30.07 "Hg28 mi
10:00 am33 °FLow clouds.1 mph93%30.07 "Hg28 mi
9:00 am32 °FOvercast.1 mph91%30.07 "Hg28 mi
8:00 am31 °FOvercast.2 mph94%30.07 "Hg31 mi
7:00 am28 °FOvercast.1 mph95%30.06 "Hg31 mi
6:00 am28 °FOvercast.1 mph93%30.07 "Hg31 mi
5:00 am27 °FPassing clouds.1 mph94%30.06 "Hg31 mi
4:00 am28 °FOvercast.1 mph91%30.06 "Hg31 mi
3:00 am28 °FOvercast.2 mph93%30.06 "Hg31 mi
2:00 am28 °FOvercast.1 mph93%30.06 "Hg31 mi
1:00 am27 °FOvercast.1 mph93%30.07 "Hg31 mi
12:00 am26 °FOvercast.1 mph95%30.06 "Hg31 mi
11:00 pm
Tue, Oct 15
25 °FOvercast.1 mph93%30.06 "Hg31 mi
10:00 pm26 °FClear.1 mph91%30.05 "Hg31 mi
9:00 pm27 °FPassing clouds.1 mph89%30.05 "Hg19 mi
8:00 pm28 °FClear.1 mph89%30.04 "Hg28 mi
7:00 pm28 °FClear.1 mph87%30.03 "Hg19 mi
6:00 pm29 °FClear.1 mph84%30.03 "Hg22 mi
5:00 pm33 °FOvercast.3 mph78%30.02 "Hg28 mi
Weather by CustomWeather, © 2019

See weather overview